Wind_Speed
61 60 58 56 55 54 53 52 50 48 47 45 42 40 36 33 32 33 36 39 41 41 39 38 37 37 39 47 61 79 91 94 93 89 87 85 82 77 72 69 68 69 70
60 58 57 57 57 56 56 55 53 51 49 47 45 41 37 33 31 31 33 36 39 39 38 37 35 34 35 39 48 64 79 90 92 91 88 86 84 81 76 72 68 67 68
58 56 57 58 59 59 58 57 56 54 53 50 47 42 37 33 30 30 30 33 36 37 37 36 35 34 34 36 41 52 65 78 87 89 88 87 85 83 80 76 73 69 68
57 57 58 59 61 61 61 60 60 59 57 53 48 43 37 33 29 28 28 30 34 37 37 37 36 34 34 35 38 44 53 64 75 83 85 85 85 84 82 78 75 72 69
57 57 59 61 63 63 63 64 64 63 60 54 47 40 34 29 27 26 27 27 33 36 37 37 37 36 35 35 36 39 44 52 62 71 77 80 82 82 81 78 76 73 71
56 58 61 63 64 64 65 67 67 64 58 49 39 29 24 22 22 23 24 26 32 36 37 38 38 37 36 35 35 36 39 44 51 59 65 71 76 78 79 77 76 74 72
57 59 62 64 66 67 68 70 70 64 54 40 27 17 13 14 18 20 22 24 30 36 38 38 38 38 37 36 35 36 37 40 44 50 56 62 67 73 74 74 74 73 71
57 59 63 65 67 68 71 73 70 63 50 34 21 9 4 9 13 16 20 23 28 35 39 39 39 39 38 36 36 36 36 37 39 43 47 52 57 62 66 69 69 69 68
57 60 63 66 67 69 72 74 71 62 47 33 19 9 1 5 9 12 16 20 26 33 38 40 40 39 39 37 37 36 36 35 37 38 41 45 50 54 58 62 64 63 63
58 60 64 66 68 69 72 74 72 63 48 34 21 11 3 2 6 9 13 17 23 30 36 40 41 41 40 39 37 36 34 34 34 34 36 39 45 50 55 59 61 60 60
58 60 63 66 68 69 71 74 73 65 51 37 24 14 7 2 3 6 9 14 20 26 33 39 42 42 41 40 38 36 35 33 31 31 32 33 38 45 50 54 59 58 58
59 60 62 64 66 68 69 71 72 68 56 42 29 18 11 6 4 5 6 9 15 22 29 36 41 44 43 42 41 39 37 35 33 32 32 32 35 41 45 51 56 56 56
58 59 60 63 65 67 68 69 71 70 64 51 37 25 16 10 6 5 5 7 11 18 26 33 39 44 45 45 44 42 40 38 36 36 35 36 39 41 45 50 54 54 55
57 57 58 60 63 65 67 68 69 69 68 62 49 35 23 15 10 7 5 6 8 14 22 29 37 43 46 47 47 45 43 42 40 39 39 40 43 44 46 49 52 53 55
56 56 57 59 61 64 66 67 68 68 69 66 61 50 36 24 16 10 7 5 6 10 17 25 33 40 45 48 49 48 47 45 44 42 42 43 45 46 47 50 53 53 53
54 55 55 57 59 61 64 66 67 67 66 66 64 61 53 41 28 17 11 7 5 7 12 19 27 36 42 47 49 50 50 49 48 46 45 45 47 48 47 48 50 51 51
52 53 54 55 56 58 60 63 64 65 65 64 64 63 61 55 46 33 21 12 8 6 8 13 21 30 38 44 48 51 51 51 50 49 47 47 48 48 48 48 48 49 49
50 52 53 54 55 56 57 59 62 63 64 64 63 62 61 60 57 50 40 26 14 8 7 9 15 23 32 40 46 49 51 52 52 52 51 49 49 49 48 48 48 48 49
48 49 51 53 53 54 55 56 58 61 62 64 64 63 61 60 58 57 53 45 32 18 9 7 10 16 24 34 41 47 50 51 52 53 52 52 51 50 50 49 49 49 49
46 47 48 50 51 52 52 53 55 57 59 61 63 63 62 60 58 57 56 54 48 38 23 11 7 9 16 25 34 42 47 50 51 51 52 53 52 52 52 51 51 50 50
45 45 45 47 48 49 50 51 53 54 56 58 60 62 62 62 60 58 56 54 53 50 42 29 15 6 8 15 24 34 42 47 50 51 51 51 52 52 53 53 53 53 53
44 43 43 44 45 46 48 49 50 52 54 55 57 58 60 61 61 59 57 54 53 51 49 44 35 21 9 5 13 23 34 42 47 50 51 51 51 51 52 53 54 55 55
43 43 42 42 43 44 45 46 48 50 51 53 54 55 56 57 58 58 58 56 53 51 49 47 44 38 27 14 5 10 21 32 41 47 50 52 52 51 51 51 52 53 54
41 42 42 42 41 42 42 44 45 47 49 50 51 52 53 53 54 55 56 56 54 52 49 46 44 42 38 31 20 8 6 17 30 40 47 51 52 53 52 52 51 51 51
40 41 41 41 41 41 42 42 43 45 47 48 50 50 51 51 51 51 52 53 53 52 50 47 44 41 39 36 32 24 13 4 13 26 37 46 51 53 54 53 52 52 51
38 39 40 41 41 41 41 42 43 43 45 46 47 48 49 49 49 48 49 50 51 51 50 48 45 42 39 36 33 30 25 17 7 9 21 33 43 50 53 55 54 53 52
Wind_Direction
340 340 340 339 338 336 333 330 327 324 322 320 317 314 307 293 276 259 247 239 237 237 238 240 241 242 239 232 227 223 219 216 215 216 218 219 219 220 221 223 225 226 227
343 343 342 341 339 337 334 331 328 324 321 318 316 311 307 297 280 262 247 237 233 233 234 235 236 236 236 231 226 223 221 218 215 215 217 219 220 220 220 221 223 225 227
345 345 344 342 340 337 335 332 328 325 321 316 312 307 302 296 282 265 248 235 229 228 229 229 230 230 230 227 224 222 221 220 217 216 217 219 220 220 221 221 223 225 227
347 347 345 343 341 338 336 332 329 325 320 315 308 302 295 289 279 264 249 234 225 222 222 223 224 224 224 223 222 219 218 219 219 218 218 219 220 222 222 222 223 225 226
349 349 347 345 343 341 338 335 332 328 322 316 308 298 287 279 269 258 247 232 221 217 217 218 219 220 220 220 218 215 214 215 217 219 219 219 221 222 223 223 225 226 227
351 350 349 348 346 344 341 339 337 334 329 322 313 299 280 266 256 249 243 229 217 213 212 213 215 216 217 216 215 212 210 211 213 216 218 219 220 221 223 224 225 226 228
352 353 352 351 350 348 346 345 344 342 339 335 327 309 274 249 239 237 235 226 215 210 208 209 211 213 214 214 212 210 209 208 210 212 215 217 219 221 222 224 225 227 229
354 355 355 355 354 353 352 352 351 351 350 350 348 337 268 231 226 227 228 222 214 209 206 206 207 209 211 211 211 210 208 208 208 209 212 214 217 219 222 224 225 227 229
356 357 358 358 358 358 358 358 358 359 0 2 6 10 347 219 219 223 225 220 214 209 205 204 205 207 208 209 209 209 209 209 209 211 211 211 211 213 216 219 220 222 224
358 359 1 1 2 2 3 4 4 5 7 10 14 21 29 229 223 227 224 219 216 210 206 204 204 205 206 207 208 208 208 209 211 211 211 210 209 208 209 211 212 214 218
1 1 3 4 5 6 7 8 10 11 11 13 17 21 21 347 264 244 235 223 219 214 209 205 204 203 205 206 206 206 206 208 209 207 206 206 205 204 205 206 205 207 212
3 3 4 6 8 10 11 13 14 16 16 17 19 22 21 9 335 293 262 236 225 219 214 209 206 204 204 205 205 205 204 204 205 203 203 202 198 198 199 200 200 203 208
5 5 6 8 10 12 14 16 18 20 21 21 22 23 23 17 1 331 294 257 233 224 218 213 210 207 205 205 205 205 204 203 203 202 200 197 195 194 194 195 197 200 205
7 7 8 10 12 14 16 18 20 22 24 25 25 24 22 19 11 355 323 282 249 231 224 218 214 211 208 207 206 205 205 203 203 203 201 198 195 194 194 195 196 199 202
8 8 10 12 14 16 18 20 22 24 26 27 28 27 25 22 16 7 347 312 270 244 230 224 219 215 212 210 209 207 206 205 204 204 204 202 200 198 197 196 197 196 198
9 10 12 14 16 18 20 21 23 25 27 28 29 30 30 27 23 14 1 341 304 263 240 229 224 219 217 214 212 211 209 208 207 206 206 206 206 206 205 202 200 200 200
10 12 13 16 18 19 21 23 25 26 27 28 29 30 31 31 30 26 16 358 331 294 259 238 228 223 220 217 215 214 212 211 210 208 208 208 209 210 211 211 209 208 208
11 13 14 16 18 20 22 23 25 26 28 29 30 30 31 31 31 31 28 21 3 327 290 258 237 227 222 219 218 217 216 214 213 212 212 211 211 212 213 214 214 214 214
11 13 15 17 19 20 22 23 25 26 28 29 30 30 31 31 31 31 31 30 26 15 339 289 256 235 226 222 219 219 218 217 216 215 215 215 214 214 214 215 216 216 217
10 12 14 16 19 21 22 24 25 25 27 28 29 30 30 31 31 31 31 31 31 29 24 1 298 256 235 225 221 220 219 219 219 218 218 218 218 218 217 217 218 218 219
10 11 13 15 18 20 22 24 25 25 26 26 27 28 29 30 30 30 30 31 31 32 31 28 19 328 260 236 225 221 220 220 220 220 220 220 220 221 221 221 221 220 220
10 11 12 14 17 19 20 22 24 24 25 25 25 26 27 28 28 29 29 30 30 30 31 32 31 27 9 277 237 226 222 221 221 221 221 222 222 222 223 223 224 224 224
10 11 12 14 15 17 18 19 21 22 22 23 23 24 24 25 26 27 28 29 29 29 29 30 31 32 30 23 338 243 228 223 222 221 222 222 222 223 223 224 225 226 227
10 11 12 13 14 14 14 15 17 19 20 20 21 21 22 22 23 24 25 26 27 27 28 28 28 29 31 31 27 8 261 231 225 223 223 223 223 224 224 225 225 226 227
9 10 12 13 13 13 12 13 14 16 17 18 19 20 20 20 21 21 22 23 24 25 25 25 25 26 27 28 28 28 19 310 238 228 225 224 224 224 224 225 225 226 227
6 8 10 11 12 12 12 11 12 14 14 15 16 17 18 18 19 19 20 21 21 22 22 22 22 23 23 23 24 25 25 21 357 253 232 227 225 225 224 224 225 225 226
Height
5509 5496 5483 5471 5459 5448 5437 5427 5417 5407 5398 5390 5383 5376 5371 5366 5365 5366 5369 5373 5379 5386 5392 5397 5401 5405 5409 5414 5423 5435 5452 5471 5492 5511 5524 5539 5555 5569 5582 5594 5605 5616 5627
5502 5489 5477 5464 5452 5440 5428 5416 5406 5396 5386 5378 5371 5364 5359 5355 5352 5353 5356 5361 5367 5374 5380 5386 5391 5396 5400 5405 5411 5421 5435 5453 5474 5493 5508 5523 5538 5554 5567 5579 5590 5602 5612
5496 5484 5471 5458 5445 5432 5419 5406 5394 5383 5373 5363 5356 5350 5346 5343 5341 5340 5344 5349 5355 5362 5369 5375 5381 5387 5392 5397 5402 5411 5423 5439 5457 5476 5493 5507 5522 5537 5551 5564 5575 5587 5598
5491 5478 5465 5451 5437 5423 5408 5394 5381 5367 5355 5346 5338 5333 5330 5329 5328 5329 5332 5338 5344 5350 5358 5365 5372 5378 5384 5389 5395 5403 5413 5427 5443 5460 5477 5492 5507 5521 5534 5549 5561 5573 5583
5487 5474 5460 5445 5429 5414 5398 5382 5366 5350 5335 5323 5316 5312 5312 5313 5315 5317 5321 5326 5332 5340 5348 5356 5363 5370 5376 5383 5389 5397 5406 5417 5431 5446 5462 5476 5491 5504 5521 5535 5546 5557 5568
5483 5470 5455 5439 5423 5406 5389 5371 5352 5333 5316 5302 5294 5292 5294 5298 5302 5305 5310 5315 5322 5330 5338 5347 5355 5363 5370 5377 5384 5391 5399 5409 5421 5434 5448 5462 5475 5490 5504 5517 5530 5543 5555
5480 5466 5451 5435 5418 5400 5381 5361 5340 5319 5301 5287 5281 5279 5282 5286 5291 5296 5300 5306 5313 5321 5330 5338 5347 5355 5363 5371 5378 5386 5394 5403 5413 5424 5436 5448 5461 5476 5491 5506 5517 5528 5541
5478 5464 5448 5432 5414 5395 5375 5354 5332 5310 5293 5282 5276 5275 5277 5280 5284 5289 5294 5299 5306 5313 5322 5331 5340 5348 5357 5365 5373 5381 5389 5397 5406 5416 5427 5439 5450 5463 5477 5491 5503 5516 5528
5476 5462 5447 5430 5412 5393 5373 5351 5329 5309 5292 5282 5277 5275 5277 5279 5282 5285 5289 5294 5300 5307 5315 5324 5333 5342 5350 5359 5367 5375 5384 5391 5399 5408 5417 5427 5439 5452 5464 5476 5489 5501 5512
5475 5460 5445 5428 5410 5392 5373 5352 5330 5310 5295 5286 5281 5279 5279 5280 5281 5284 5287 5291 5296 5302 5310 5318 5327 5335 5344 5352 5361 5370 5378 5386 5393 5401 5409 5418 5428 5439 5450 5462 5475 5488 5500
5474 5459 5445 5429 5412 5394 5375 5355 5335 5316 5301 5291 5285 5283 5282 5282 5283 5284 5286 5289 5293 5299 5305 5313 5321 5329 5338 5347 5355 5364 5372 5380 5388 5396 5403 5411 5419 5429 5439 5451 5464 5477 5489
5474 5461 5446 5431 5416 5399 5381 5363 5344 5326 5310 5299 5291 5288 5286 5285 5285 5285 5287 5289 5292 5296 5301 5308 5315 5323 5332 5341 5350 5358 5367 5375 5383 5391 5398 5405 5413 5423 5432 5443 5455 5467 5478
5476 5463 5449 5435 5420 5404 5388 5371 5353 5336 5320 5307 5298 5293 5290 5288 5287 5287 5287 5288 5290 5293 5297 5303 5310 5318 5326 5335 5344 5352 5361 5370 5378 5386 5393 5401 5409 5418 5427 5437 5448 5458 5469
5479 5467 5453 5439 5424 5410 5394 5379 5363 5347 5332 5317 5307 5299 5294 5291 5289 5288 5288 5288 5289 5291 5294 5299 5305 5312 5320 5329 5338 5346 5355 5364 5372 5380 5389 5397 5405 5413 5422 5431 5441 5450 5459
5482 5470 5457 5444 5430 5415 5400 5386 5371 5356 5341 5329 5318 5308 5301 5296 5292 5290 5288 5288 5288 5290 5292 5295 5301 5307 5314 5323 5331 5340 5349 5358 5366 5375 5383 5391 5400 5408 5416 5424 5434 5442 5450
5486 5475 5462 5449 5436 5422 5408 5394 5380 5367 5354 5341 5330 5319 5309 5302 5296 5292 5290 5288 5288 5288 5289 5292 5296 5301 5308 5316 5324 5333 5342 5351 5359 5368 5376 5385 5393 5402 5410 5418 5426 5434 5442
5490 5478 5467 5454 5442 5430 5418 5405 5392 5379 5366 5354 5342 5331 5321 5312 5303 5297 5292 5289 5288 5287 5287 5288 5291 5295 5301 5309 5317 5325 5334 5343 5352 5361 5369 5378 5386 5395 5403 5411 5419 5427 5434
5493 5482 5471 5460 5448 5437 5425 5414 5402 5390 5378 5366 5354 5343 5333 5323 5314 5305 5298 5292 5289 5287 5286 5286 5287 5290 5295 5301 5309 5318 5326 5335 5344 5353 5362 5370 5378 5387 5395 5403 5411 5419 5426
5497 5487 5476 5465 5454 5443 5433 5422 5411 5400 5388 5377 5365 5354 5344 5334 5325 5315 5307 5299 5292 5288 5285 5285 5285 5287 5290 5295 5301 5309 5318 5327 5335 5344 5353 5361 5370 5378 5386 5394 5402 5410 5418
5500 5491 5481 5471 5460 5450 5440 5429 5419 5409 5398 5387 5376 5366 5355 5345 5335 5326 5317 5308 5300 5293 5287 5285 5284 5284 5286 5289 5294 5301 5309 5318 5326 5335 5344 5352 5360 5369 5377 5385 5393 5401 5408
5503 5494 5485 5475 5466 5456 5447 5436 5426 5416 5406 5396 5385 5376 5365 5355 5345 5336 5327 5318 5310 5302 5294 5288 5285 5284 5284 5286 5289 5294 5301 5309 5317 5325 5334 5342 5350 5359 5367 5375 5383 5391 5399
5506 5498 5489 5480 5471 5462 5452 5443 5433 5424 5414 5404 5394 5384 5375 5365 5356 5346 5337 5328 5319 5311 5304 5297 5291 5286 5284 5284 5285 5289 5293 5300 5308 5316 5324 5332 5340 5348 5356 5364 5372 5380 5388
5509 5500 5492 5483 5475 5466 5457 5449 5440 5430 5421 5411 5402 5392 5383 5374 5365 5355 5346 5337 5329 5321 5313 5306 5299 5293 5288 5285 5285 5285 5288 5292 5298 5305 5313 5321 5329 5337 5345 5353 5361 5369 5376
5511 5503 5495 5487 5478 5470 5462 5454 5445 5436 5427 5418 5408 5399 5390 5381 5372 5364 5355 5346 5338 5330 5322 5315 5308 5302 5296 5291 5287 5285 5285 5287 5290 5296 5302 5310 5317 5325 5334 5341 5349 5357 5364
5514 5506 5498 5490 5482 5474 5466 5458 5449 5440 5432 5423 5414 5405 5396 5388 5379 5371 5362 5354 5346 5338 5330 5322 5316 5309 5303 5298 5293 5288 5285 5284 5285 5288 5292 5298 5305 5313 5320 5328 5336 5344 5352
5515 5508 5500 5492 5485 5477 5469 5461 5453 5444 5436 5427 5419 5411 5402 5394 5385 5377 5369 5361 5352 5344 5337 5329 5322 5315 5309 5303 5298 5293 5289 5285 5283 5283 5284 5288 5293 5299 5307 5315 5323 5331 5338